METEOR 2-7 DEB

Satellite information

Favourite Embed

Satellite Type and Status

DEBRISIN ORBIT

Key statistics

Satellite METEOR 2-7 DEB at a glance.

Uptime

16124

Days in orbit

Revolutions

≈ 14.5

Per day

Orbit

LEO

Low Earth Orbit

Inclination

81.3

Latest

Satellite identification and parameters

Extended collection of information and parameters for METEOR 2-7 DEB.

Object identification

Identified? True

Debris? True

Object name: METEOR 2-7 DEB

International designator: 1981-043R

Object number (NORAD): 36878

Object ID (CCSDS): 36878

Country: COMMONWEALTH OF INDEPENDENT STATES (CIS)

Current information (Y/N): Y

RCS size: SMALL

Orbital parameters

Period: 99.42 minutes

Inclination: 81.2535 deg

SMA: 7109.013 km

Apoapsis: 751.266 km

Periapsis: 710.49 km

RAAN: 328.7481 deg

Eccentricy: 0.0028679

Argument of periapsis: 117.6596 deg

Mean anomaly: 303.4616 deg

Mean motion: 14.48400933 rev/day

Mean motion (dot): 0.00003627 rev/day2

B* drag term: 0.00096026 1/REarth

Two-line elements (TLE)

Creation date: July 5, 2025, 10:46 p.m.

Reference frame: TEME

Reference center: EARTH

Epoch: July 5, 2025, 4:48 p.m. UTC

TLE line 0: 0 METEOR 2-7 DEB

TLE line 1: 1 36878U 81043R 25186.70042916 .00003627 00000-0 96026-3 0 9993

TLE line 2: 2 36878 81.2535 328.7481 0028679 117.6596 303.4616 14.48400933820658

Live tracking on map

Real-time ground track for satellite METEOR 2-7 DEB.

In-orbit conjunctions

A list of the most updated potential collisions computed for object METEOR 2-7 DEB.

Target Orbit TCA Probability of collision Miss distance Type
PICOSAT 6 SSO 2025-02-08 00:56:57 0.0002257985 261.0 (m) PAYLOAD
SCOUT G-1 DEB LEO 2024-09-25 08:26:48 0.0006786823 660.0 (m) DEBRIS

Associated space launch

Second generation soviet meteorological satellite

METEOR 2-7 DEB was lifted into orbit during the mission ‘Vostok 8A92M | Meteor-2 7’, on board a Vostok 8A92M space rocket.

The launch took place on May 14, 1981, 9:45 p.m. from 43/3 (43L).

For more information about the launch, click the button.

Launch to space Vostok 8A92M | Meteor-2 7
Vostok 8A92M | Meteor-2 7

Agency: N/A

Status: Launch Successful

Launch date: May 14, 1981, 9:45 p.m. UTC

Rocket: Vostok 8A92M

Launch pad: 43/3 (43L)

Location: Plesetsk Cosmodrome, Russian Federation

...

Latest news about this satellite

There are no fresh news available about this satellite. Check back as we update our databases every day.


Newsletter sign-up

Weekly statistics, charts and insights to help you stay on top of the space industry.